User: anonymous   Login
Location: Unspecified
(0.0000°N, 0.0000°E)
Time: 11:04:05
(UTC+00:00)
Language:

USA 238 - Orbit

View from above orbital plane
View from above orbital plane
View from above satellite
View from above satellite

Ground track
Ground track

The orbit data is extracted from the following two-line orbital elements,

1 38758U 12048A   17347.70932812 0.00000000  00000-0  00000-0 0    03
2 38758  63.4342 204.5457 0041000   7.3339 352.6661 13.40739413    06
Epoch (UTC): 13 December 2017 17:01:25
Eccentricity: 0.0041000
inclination: 63.4342°
perigee height: 1076 km
apogee height: 1137 km
right ascension of ascending node: 204.5457°
argument of perigee: 7.3339°
revolutions per day: 13.40739413
mean anomaly at epoch: 352.6661°
orbit number at epoch: 0

The dashed part of the orbit path shows where the satellite is in the earth's shadow,  

DLR